HB9SZU-7 Weather Reports


time (UTC)temp
C
wind
direction
speed
KPH
gust
KPH
rain 1hr
cm
rain 24hr
cm
rain mn
cm
humidity
%
barometer
mb
20260507003919 7 0.0 0.0 0.00 0.00 0.00 81 930.9
20260507002319 7 0.0 0.0 0.00 0.00 0.00 81 930.8
20260507000719 7 0.0 0.0 0.00 0.00 0.00 82 930.9
20260506235119 7 0.0 0.0 0.00 0.00 0.00 82 930.8
20260506233519 7 0.0 0.0 0.00 0.00 0.00 82 930.9
20260506231919 7 0.0 0.0 0.00 0.00 0.00 82 930.9
20260506230319 7 0.0 0.0 0.00 0.00 0.00 82 931.0
20260506224719 7 0.0 0.0 0.00 0.00 0.00 81 931.3
20260506223118 7 0.0 0.0 0.00 0.00 0.00 81 931.1
20260506221519 7 0.0 0.0 0.00 0.00 0.00 81 931.1
20260506215919 7 0.0 0.0 0.00 0.00 0.00 81 930.8
20260506214319 7 0.0 0.0 0.00 0.00 0.00 80 930.6
20260506212719 7 0.0 0.0 0.00 0.00 0.00 80 930.6
20260506211119 7 0.0 0.0 0.00 0.00 0.00 78 931.0
20260506205519 8 0.0 0.0 0.00 0.00 0.00 77 930.6
20260506203919 7 0.0 0.0 0.00 0.00 0.00 77 930.3
20260506202319 7 0.0 0.0 0.00 0.00 0.00 77 930.4
20260506200719 7 0.0 0.0 0.00 0.00 0.00 77 930.4
20260506195119 8 0.0 0.0 0.00 0.00 0.00 78 930.2
20260506193519 8 0.0 0.0 0.00 0.00 0.00 78 929.8
20260506191919 8 0.0 0.0 0.00 0.00 0.00 79 929.8
20260506190319 8 0.0 0.0 0.00 0.00 0.00 78 929.6
20260506184718 9 0.0 0.0 0.00 0.00 0.00 75 929.0
20260506183119 8 0.0 0.0 0.00 0.00 0.00 78 928.6
20260506181519 8 0.0 0.0 0.00 0.00 0.00 78 928.7
20260506175919 9 0.0 0.0 0.00 0.00 0.00 79 928.6
20260506174319 9 0.0 0.0 0.00 0.00 0.00 77 928.3
20260506172718 9 0.0 0.0 0.00 0.00 0.00 77 928.3
20260506171119 9 0.0 0.0 0.00 0.00 0.00 77 928.3
20260506165518 9 0.0 0.0 0.00 0.00 0.00 81 928.5
20260506163919 9 0.0 0.0 0.00 0.00 0.00 81 928.3
20260506162319 9 0.0 0.0 0.00 0.00 0.00 80 927.9
20260506160719 9 0.0 0.0 0.00 0.00 0.00 79 928.1
20260506155119 9 0.0 0.0 0.00 0.00 0.00 80 928.1
20260506153519 9 0.0 0.0 0.00 0.00 0.00 82 928.3
20260506151919 8 0.0 0.0 0.00 0.00 0.00 82 928.2
20260506150319 8 0.0 0.0 0.00 0.00 0.00 82 928.3
20260506144719 8 0.0 0.0 0.00 0.00 0.00 82 928.8
20260506143118 7 0.0 0.0 0.00 0.00 0.00 82 928.6
20260506141519 7 0.0 0.0 0.00 0.00 0.00 82 928.8
20260506135919 7 0.0 0.0 0.00 0.00 0.00 81 929.0
20260506134319 7 0.0 0.0 0.00 0.00 0.00 81 929.3
20260506132719 8 0.0 0.0 0.00 0.00 0.00 81 929.9
20260506131119 8 0.0 0.0 0.00 0.00 0.00 81 929.4
20260506124150 9 0.0 0.0 0.00 0.00 0.00 80 928.2
20260506122549 10 0.0 0.0 0.00 0.00 0.00 78 928.0
20260506120950 10 0.0 0.0 0.00 0.00 0.00 77 927.4
20260506115349 10 0.0 0.0 0.00 0.00 0.00 78 927.3
20260506113749 10 0.0 0.0 0.00 0.00 0.00 80 927.3
20260506112149 9 0.0 0.0 0.00 0.00 0.00 80 927.5
20260506110550 9 0.0 0.0 0.00 0.00 0.00 80 927.9
20260506104950 9 0.0 0.0 0.00 0.00 0.00 79 927.9
20260506103350 9 0.0 0.0 0.00 0.00 0.00 77 928.0
20260506101750 9 0.0 0.0 0.00 0.00 0.00 77 927.7
20260506100150 9 0.0 0.0 0.00 0.00 0.00 78 927.3
20260506094550 9 0.0 0.0 0.00 0.00 0.00 78 927.3
20260506092950 9 0.0 0.0 0.00 0.00 0.00 77 927.4
20260506091349 10 0.0 0.0 0.00 0.00 0.00 77 927.4
20260506085750 9 0.0 0.0 0.00 0.00 0.00 80 927.5
20260506084150 9 0.0 0.0 0.00 0.00 0.00 80 927.5
20260506082550 8 0.0 0.0 0.00 0.00 0.00 81 927.5
20260506080949 8 0.0 0.0 0.00 0.00 0.00 80 927.4
20260506072150 8 0.0 0.0 0.00 0.00 0.00 80 927.7
20260506070550 8 0.0 0.0 0.00 0.00 0.00 81 927.9
20260506061750 8 0.0 0.0 0.00 0.00 0.00 83 928.1
20260506060150 8 0.0 0.0 0.00 0.00 0.00 83 928.0
20260506051350 8 0.0 0.0 0.00 0.00 0.00 83 928.5
20260506044149 8 0.0 0.0 0.00 0.00 0.00 82 928.6
20260506042550 8 0.0 0.0 0.00 0.00 0.00 83 928.9
20260506040949 8 0.0 0.0 0.00 0.00 0.00 83 928.8
20260506035350 8 0.0 0.0 0.00 0.00 0.00 83 929.1
20260506033750 8 0.0 0.0 0.00 0.00 0.00 83 929.1
20260506032150 8 0.0 0.0 0.00 0.00 0.00 84 929.3
20260506030550 8 0.0 0.0 0.00 0.00 0.00 84 929.5
20260506024950 8 0.0 0.0 0.00 0.00 0.00 84 929.7
20260506023350 9 0.0 0.0 0.00 0.00 0.00 83 929.7
20260506021750 9 0.0 0.0 0.00 0.00 0.00 83 929.8
20260506020149 9 0.0 0.0 0.00 0.00 0.00 83 929.7
20260506014549 9 0.0 0.0 0.00 0.00 0.00 84 929.8
20260506012950 9 0.0 0.0 0.00 0.00 0.00 84 930.0
20260506011350 9 0.0 0.0 0.00 0.00 0.00 84 930.2
20260506005750 9 0.0 0.0 0.00 0.00 0.00 84 930.3